DW4712 Weather Reports


time (UTC)temp
C
wind
direction
speed
KPH
gust
KPH
rain 1hr
cm
rain 24hr
cm
rain mn
cm
humidity
%
barometer
mb
20260504081546 6 0 0.0 0.0 0.00 0.00 0.00 81 1018.2
20260504044543 9 0 0.0 0.0 0.00 0.00 0.00 64 1018.3
20260504043042 9 0 0.0 0.0 0.00 0.00 0.00 62 1018.3
20260504041537 10 0 0.0 0.0 0.00 0.00 0.00 61 1018.1
20260504040111 10 0 0.0 0.0 0.00 0.00 0.00 57 1018.1
20260504034544 10 0 0.0 0.0 0.00 0.00 0.00 56 1018.1
20260504033047 10 0 0.0 0.0 0.00 0.00 0.00 57 1018.1
20260504031553 11 0 0.0 0.0 0.00 0.00 0.00 56 1018.2
20260504030044 11 0 0.0 0.0 0.00 0.00 0.00 57 1018.1
20260504024546 11 0 0.0 0.0 0.00 0.00 0.00 55 1018.2
20260504023043 11 0 0.0 0.0 0.00 0.00 0.00 54 1018.1
20260504021538 11 0 0.0 0.0 0.00 0.00 0.00 54 1017.9
20260504020038 11 0 0.0 0.0 0.00 0.00 0.00 54 1017.6
20260504014551 12 0 0.0 0.0 0.00 0.00 0.00 52 1017.5
20260504013046 11 0 0.0 0.0 0.00 0.00 0.00 53 1017.4
20260504011542 11 0 0.0 0.0 0.00 0.00 0.00 53 1017.3
20260504010042 12 0 0.0 0.0 0.00 0.00 0.00 53 1017.1
20260504004547 12 0 0.0 0.0 0.00 0.00 0.00 53 1017.2
20260504003042 12 0 0.0 0.0 0.00 0.00 0.00 50 1017.1
20260504001550 13 0 0.0 0.0 0.00 0.00 0.00 50 1017.0
20260504000043 14 0 0.0 0.0 0.00 0.00 0.00 46 1016.6
20260503234608 15 0 0.0 0.0 0.00 0.00 0.00 41 1016.7
20260503233048 16 0 0.0 3.2 0.00 0.00 0.00 38 1016.8
20260503231545 16 246 1.6 6.4 0.00 0.00 0.00 38 1016.9
20260503230044 16 269 1.6 6.4 0.00 0.00 0.00 36 1016.8
20260503224539 17 283 0.0 8.0 0.00 0.00 0.00 33 1016.9
20260503223046 17 0 3.2 9.7 0.00 0.00 0.00 35 1016.9
20260503221538 17 0 1.6 11.3 0.00 0.00 0.00 31 1017.0
20260503220045 17 276 0.0 8.0 0.00 0.00 0.00 33 1017.2
20260503214540 17 234 3.2 9.7 0.00 0.00 0.00 32 1017.3
20260503213047 17 215 1.6 6.4 0.00 0.00 0.00 33 1017.5
20260503211544 17 81 0.0 6.4 0.00 0.00 0.00 31 1017.7
20260503210043 17 267 3.2 9.7 0.00 0.00 0.00 31 1017.7
20260503204552 17 235 3.2 11.3 0.00 0.00 0.00 29 1018.0
20260503203054 17 0 0.0 9.7 0.00 0.00 0.00 28 1017.9
20260503201549 17 228 3.2 8.0 0.00 0.00 0.00 31 1018.2
20260503200053 17 199 4.8 11.3 0.00 0.00 0.00 27 1018.6
20260503194552 17 227 1.6 9.7 0.00 0.00 0.00 30 1018.7
20260503193044 17 237 3.2 8.0 0.00 0.00 0.00 26 1018.8
20260503191538 17 0 1.6 12.9 0.00 0.00 0.00 32 1019.1
20260503190035 16 0 1.6 11.3 0.00 0.00 0.00 32 1019.2
20260503184535 17 292 3.2 11.3 0.00 0.00 0.00 32 1019.3
20260503183040 16 32 3.2 9.7 0.00 0.00 0.00 34 1019.6
20260503181539 16 250 1.6 11.3 0.00 0.00 0.00 31 1019.8
20260503180057 16 0 1.6 8.0 0.00 0.00 0.00 34 1020.1
20260503174543 15 22 4.8 17.7 0.00 0.00 0.00 36 1020.4
20260503173041 15 5 3.2 11.3 0.00 0.00 0.00 30 1020.4
20260503171545 15 244 1.6 9.7 0.00 0.00 0.00 33 1020.4